Regional Weather Roundup
Issued by NWS

Home | Current Version | Previous Version | Text Only | Print | Product List | Glossary Off
Versions: 1 2 3 4 5 6 7 8 9 10 11 12 13 14 15 16 17 18 19 20 21 22 23 24 25 26 27 28 29 30 31 32 33 34 35 36 37 38 39 40 41 42 43 44 45 46 47 48 49 50

000
ASUS43 KDTX 211710
RWRMI
MICHIGAN HOURLY REGIONAL WEATHER ROUNDUP
NATIONAL WEATHER SERVICE DETROIT/PONTIAC MI
100 PM EDT TUE OCT 21 2014

NOTE: "FAIR" INDICATES FEW OR NO CLOUDS BELOW 12,000 FEET WITH NO
SIGNIFICANT WEATHER AND/OR OBSTRUCTION TO VISIBILITY.

MIZ047>049-052>055-059>063-066>070-074>076-081>083-211800-
SOUTHEAST LOWER MICHIGAN

CITY           SKY/WX    TMP DP  RH WIND       PRES   REMARKS
ADRIAN         CLOUDY    49  39  68 NE15G23   30.07R
ALMA           CLOUDY    47  37  70 N13       30.13R
ANN ARBOR      CLOUDY    47  38  71 N12G20    30.06R
BAD AXE        CLOUDY    44  40  85 N18G24    30.08R
CARO           CLOUDY    45  38  79 N14       30.09R
DETROIT CITY   CLOUDY    49  39  68 N14       30.04S
DETROIT        CLOUDY    47  39  74 N13G21    30.05R
FLINT          CLOUDY    47  38  71 N17G24    30.09R
GROSSE ILE     CLOUDY    48  39  71 N14       30.03R
HILLSDALE      CLOUDY    49  42  76 N13       30.07R
HOWELL         CLOUDY    45  38  77 N10G18    30.07S

CITY           SKY/WX    TMP DP  RH WIND       PRES   REMARKS
JACKSON        CLOUDY    47  40  76 NE12      30.08R
LAMBERTVILLE   CLOUDY    48  41  76 N13G18    30.05R
LANSING        CLOUDY    46  37  71 N12G21    30.12R
LAPEER         CLOUDY    44  38  80 N14G22    30.06S
MASON          CLOUDY    46  39  77 N9G18     30.10R
MONROE         CLOUDY    48  41  76 N14       30.03R
MT. CLEMENS    CLOUDY    46  42  86 N17G24    30.01R
PONTIAC        CLOUDY    45  38  76 N15       30.04R
PORT HOPE        N/A     46  40  79 MISG      30.07R
PORT HURON     CLOUDY    45  41  87 N8G18     30.02R
TRI CITIES     LGT RAIN  46  35  65 N17       30.13R
TROY           CLOUDY    48  38  70 N12G17    30.05S
SAGINAW HB     CLOUDY    45  36  70 N14G23    30.11R
$$
MIZ043>046-050>051-056>058-064>065-071>073-077>080-211800-
SOUTHWEST LOWER MICHIGAN

CITY           SKY/WX    TMP DP  RH WIND       PRES   REMARKS
BATTLE CREEK   CLOUDY    49  39  68 N12       30.11R
BENTON HARBOR  CLOUDY    52  41  66 N12G17    30.13R
BIG RAPIDS     CLOUDY    45  40  83 N8        30.14S
COLDWATER      CLOUDY    49  42  78 N10G16    30.09R
FREMONT        CLOUDY    48  36  64 NE8       30.15S
HOLLAND        CLOUDY    51  39  63 VRB5      30.15R
GRAND RAPIDS   CLOUDY    48  39  71 N9        30.13R
IONIA          CLOUDY    47  38  71 N12       30.12R
KALAMAZOO      CLOUDY    49  41  74 N13       30.12R
LUDINGTON      CLOUDY    49  40  71 N12       30.17S
MARSHALL       CLOUDY    47  38  72 CALM      30.10R
MOUNT PLEASANT CLOUDY    47  35  64 N13       30.14R
MUSKEGON       CLOUDY    50  36  58 N14G22    30.16R
SOUTH HAVEN    CLOUDY    51  41  70 NE10      30.14R
$$
MIZ016>042-211800-
NORTHERN LOWER MICHIGAN

CITY           SKY/WX    TMP DP  RH WIND       PRES   REMARKS
ALPENA         PTSUNNY   44  32  62 N15       30.17R
BEAVER ISLAND  MOSUNNY   46  34  64 N6        30.23R
BELLAIRE       MOSUNNY   49  33  54 NE10      30.19R
CADILLAC       CLOUDY    44  38  82 N8        30.14S
CHARLEVOIX     SUNNY     47  38  69 N12       30.22S
FRANKFORT      SUNNY     50  35  55 NE7       30.19R
GAYLORD        MOSUNNY   43  31  62 N9G17     30.16R
GRAYLING       MOSUNNY   49  34  55 N16       30.15S
HARBOR SPRINGS SUNNY     47  32  56 N10       30.20R
HOUGHTON LAKE  PTSUNNY   47  33  58 N10       30.14S
MANISTEE       PTSUNNY   48  34  57 N12       30.18S
OSCODA         CLOUDY    44  35  72 N12G21    30.13R
PELLSTON       SUNNY     46  31  55 N9        30.21R
ROGERS CITY    MOSUNNY   43  34  70 N10       30.20R
TRAVERSE CITY  MOSUNNY   49  35  58 NE10      30.18R
$$
MIZ007>008-015-211800-
EASTERN UPPER MICHIGAN

CITY           SKY/WX    TMP DP  RH WIND       PRES   REMARKS
KINROSS        SUNNY     43  28  56 N13G21    30.22S
MACKINAC ISLAN SUNNY     44  30  56 N7        30.21S
NEWBERRY       SUNNY     43  32  66 N8        30.22S
S. S. MARIE    SUNNY     44  27  51 N8        30.22S
MUNISING         N/A     43  35  73 N17       30.27R
$$
MIZ004>006-011>014-085-211800-
CENTRAL UPPER MICHIGAN

CITY           SKY/WX    TMP DP  RH WIND       PRES   REMARKS
MANISTIQUE     SUNNY     48  32  55 N9        30.22F
ESCANABA       MOSUNNY   48  30  49 N7G16     30.23S
MENOMINEE      MOSUNNY   48  30  49 N8        30.23S
SAWYER-GWINN   MOSUNNY   41  32  70 N12       30.25F
$$
MIZ001>003-009>011-084-211800-
WESTERN UPPER MICHIGAN

CITY           SKY/WX    TMP DP  RH WIND       PRES   REMARKS
IRON MOUNTAIN  SUNNY     46  32  58 NW9       30.24F
HOUGHTON       SUNNY     44  29  55 E7        30.27S
COPPER HARBOR    N/A     43  32  65 E6        30.29S
IRONWOOD       CLOUDY    43  36  75 SE8       30.24S
$$

ABBREVIATIONS USED IN REMARKS
   TC - TEMPERATURE IN CELSIUS
  WCI - WIND CHILL INDEX
   HX - HEAT INDEX
  VSB - VISIBILITY




USA.gov is the U.S. government's official web portal to all federal, state and local government web resources and services.